Temperature
28 28 28 28 29 29 29 29 28 28 28 29 29 29 29 28 28 27 27 26 25 24 23 22 21 21 20 19 19 18 18 17 17 16 16 15 15 14 14 13 13 12 12 11
28 29 29 29 30 30 30 29 29 29 29 30 29 29 29 28 28 27 27 26 25 24 23 22 21 20 20 19 19 18 18 18 17 16 16 16 15 15 14 13 13 12 12 12
27 28 28 27 29 29 29 29 29 28 28 29 29 29 28 28 28 27 27 26 25 24 23 22 21 21 20 20 19 18 18 18 17 17 16 16 15 15 14 14 13 13 12 12
27 27 25 27 29 29 28 29 29 29 29 29 29 29 28 28 27 27 27 26 26 25 24 23 22 21 20 20 19 19 18 18 17 17 16 16 15 15 14 14 13 13 12 12
27 26 26 27 27 26 26 27 28 28 28 28 28 28 28 27 27 26 26 26 25 25 24 23 23 22 21 20 19 19 18 18 18 17 16 16 16 15 15 14 14 13 13 12
26 26 25 25 24 25 25 24 25 26 27 27 27 27 26 26 26 25 26 25 25 25 24 24 23 22 21 21 20 19 19 18 18 17 16 16 16 16 15 15 14 14 13 12
26 26 26 24 24 25 23 22 23 24 25 26 26 25 25 25 25 25 25 24 24 24 24 24 23 22 22 21 20 19 19 18 17 17 17 16 16 16 15 15 14 13 13 13
25 24 23 23 23 22 21 22 22 23 24 24 24 24 24 23 23 23 23 23 23 22 23 23 22 22 21 20 20 19 18 18 17 17 16 16 15 15 15 15 14 13 13 13
25 24 22 21 21 21 22 22 22 23 23 23 23 22 22 21 20 20 20 20 21 21 21 21 21 20 20 19 18 18 17 17 17 16 16 16 15 15 14 14 13 13 13 12
23 22 22 22 22 22 22 22 22 22 21 21 21 21 20 19 19 18 18 18 19 19 19 19 19 18 18 18 17 17 17 16 16 16 15 15 15 14 14 13 13 13 13 12
23 21 20 20 21 21 21 21 21 20 20 20 20 19 19 18 17 17 17 17 17 17 17 17 17 17 16 16 16 16 16 15 15 15 14 14 14 14 14 13 13 13 13 12
23 22 22 20 21 21 20 20 20 19 19 19 18 18 17 17 17 16 16 16 16 15 15 15 15 15 15 15 15 15 14 14 14 14 14 14 14 14 14 14 14 13 13 12
23 23 21 21 21 20 20 20 19 19 18 18 17 17 16 16 16 15 15 15 15 14 14 14 14 14 14 14 13 13 13 13 13 13 14 14 14 14 14 14 13 13 13 12
20 21 21 20 20 19 19 19 18 18 17 17 16 16 15 15 15 15 14 14 14 13 13 13 13 13 12 12 12 12 12 12 12 13 13 13 13 14 14 14 13 13 13 12
20 19 19 18 18 18 18 17 17 17 16 16 15 15 15 14 14 14 14 13 13 13 12 12 12 12 11 11 11 11 11 11 12 12 12 13 13 13 13 13 13 13 13 12
19 18 18 17 17 16 16 16 16 15 15 15 15 14 14 14 14 13 13 12 12 12 11 11 11 11 10 10 10 10 11 11 11 12 12 12 13 13 13 13 13 12 12 12
18 17 17 16 16 15 15 15 15 15 14 14 14 14 13 13 13 12 12 12 11 11 11 11 10 10 10 10 10 10 10 10 10 11 11 12 12 12 12 12 12 12 11 11
16 15 15 15 15 15 14 14 14 14 14 13 13 13 12 12 12 11 11 11 11 11 11 10 10 10 9 9 9 9 9 9 9 10 10 10 11 11 11 11 11 11 11 11
15 15 15 14 14 14 14 14 14 13 13 13 12 12 12 11 11 11 11 10 10 10 10 10 9 9 9 9 8 8 8 9 9 9 9 9 10 10 10 10 10 10 10 10
15 14 14 14 14 14 14 13 13 13 12 12 12 12 11 11 11 11 10 10 10 10 10 9 9 9 8 8 8 8 8 8 8 8 8 8 8 8 9 9 9 9 9 9
15 14 14 14 14 13 13 13 12 12 12 12 12 11 11 11 11 10 10 10 10 10 9 9 9 8 8 7 7 7 7 7 7 7 7 7 7 7 7 7 8 8 8 8
14 14 13 13 13 13 12 12 12 12 12 11 11 11 11 10 10 10 10 10 10 9 9 8 8 7 7 7 6 6 6 5 5 5 5 5 6 6 6 6 7 7 7 7
13 13 12 12 12 12 12 12 12 12 11 11 11 11 11 10 10 10 10 10 9 9 8 8 7 7 6 6 5 5 4 4 4 4 4 4 4 5 5 5 5 6 6 6
12 12 12 12 12 11 11 12 12 11 11 11 11 11 11 11 10 10 10 9 9 8 7 7 6 6 5 4 4 3 3 3 3 3 3 3 3 4 4 4 4 5 5 5
12 12 11 11 11 12 12 12 11 11 11 11 11 11 10 10 10 9 9 8 7 7 6 5 5 4 3 3 2 2 2 2 2 2 2 2 2 3 3 3 3 4 4 4
12 11 12 11 11 11 11 11 11 11 11 11 10 10 10 9 9 8 8 7 6 6 5 4 3 3 2 2 1 1 1 1 1 1 1 1 2 2 2 2 2 3 3 3
12 12 11 11 11 11 11 11 10 10 10 10 9 9 9 8 8 7 6 6 5 4 3 3 2 1 1 1 0 0 0 0 0 1 1 1 1 1 2 2 2 2 2 3
Wind_Speed
13 12 11 14 11 9 8 9 10 8 6 2 0 2 3 2 4 5 7 9 8 8 9 9 8 9 8 8 8 8 7 7 7 7 7 7 6 6 6 6 8 7 7 7
16 15 14 15 13 10 9 8 8 7 4 4 4 3 2 1 2 4 6 8 10 10 11 11 10 10 10 9 9 8 8 7 7 6 6 6 6 6 7 7 7 6 7 7
14 14 13 11 11 7 6 6 4 4 1 1 1 1 1 2 3 4 5 7 9 11 11 12 12 11 11 10 10 10 9 8 7 7 7 7 7 6 5 6 6 7 7 7
13 13 14 8 7 4 5 4 3 1 1 2 2 1 1 3 3 2 3 4 6 9 11 13 13 13 11 11 11 11 10 10 9 8 7 7 6 6 6 5 6 6 7 8
12 13 11 8 7 7 5 5 8 6 5 6 6 4 4 4 2 3 2 2 3 6 10 11 13 13 13 12 12 12 12 11 10 9 8 7 6 6 5 5 6 7 8 9
12 13 11 4 0 2 4 2 11 12 11 11 9 6 4 7 5 4 3 1 3 6 6 7 9 11 13 13 12 13 12 11 10 9 8 7 7 6 6 6 7 8 9 9
13 12 5 5 2 1 1 2 8 10 10 9 8 8 9 10 9 8 6 5 3 2 3 4 5 7 9 10 11 10 9 9 9 9 9 8 7 7 6 7 8 9 9 9
8 9 3 5 6 5 3 3 7 9 10 10 10 10 11 12 13 13 13 11 8 5 4 3 1 4 6 7 7 6 7 8 8 9 9 9 9 8 8 8 9 10 10 11
1 1 5 6 7 3 2 4 6 8 10 11 11 12 13 14 14 14 15 14 12 10 9 8 6 2 3 4 4 5 6 7 7 8 8 8 8 9 8 8 10 10 9 9
3 8 8 7 7 7 7 8 9 10 11 12 12 12 13 13 13 13 14 14 14 14 12 10 10 8 6 4 4 5 6 6 7 7 9 9 8 9 9 9 10 9 8 7
3 9 11 6 6 8 10 10 11 11 12 13 12 12 12 12 12 12 12 12 12 11 10 10 10 9 8 7 5 6 7 7 9 10 10 9 10 10 11 10 10 9 7 6
2 7 8 9 7 9 10 10 10 10 11 12 13 12 12 11 11 11 11 11 11 11 11 10 9 9 8 7 7 7 7 8 9 10 10 10 10 11 17 18 18 18 16 13
6 8 12 11 9 9 9 9 9 10 10 10 11 11 11 10 9 10 10 10 10 11 11 10 10 10 10 10 9 8 9 10 10 11 11 10 9 9 9 11 17 18 17 17
9 9 10 10 10 9 9 9 9 10 10 10 10 10 10 10 9 10 10 10 11 11 11 11 11 10 10 11 10 11 12 13 13 11 12 12 11 10 9 8 7 7 12 19
8 9 11 11 10 10 9 9 8 9 9 9 9 9 10 10 10 10 10 10 11 12 13 13 12 11 11 12 12 13 14 13 12 12 12 12 11 10 9 9 7 6 6 8
11 12 11 10 9 8 8 8 8 8 9 9 10 10 10 10 10 10 10 11 11 12 12 12 11 11 12 13 14 13 12 16 15 14 13 12 11 10 9 7 7 6 6 6
9 9 8 7 6 6 7 7 8 9 10 11 11 12 12 11 11 11 11 12 11 11 11 10 10 11 13 13 14 14 14 15 18 16 14 12 11 9 8 6 6 6 6 4
12 10 8 5 5 5 6 8 9 10 10 11 12 12 12 12 11 11 11 12 12 11 11 10 11 13 14 13 12 13 14 14 14 14 13 11 10 9 8 6 5 6 5 4
8 5 3 2 3 5 7 8 10 10 11 11 11 11 11 11 11 11 11 12 12 11 9 11 13 14 14 11 13 11 14 15 14 12 11 11 10 9 7 6 6 6 5 5
3 1 3 4 6 7 9 10 11 11 11 11 11 11 12 12 12 12 11 11 9 8 9 11 12 12 11 12 15 14 15 15 14 12 11 11 10 9 7 6 6 6 6 5
2 4 6 8 9 10 11 11 11 12 12 12 12 12 12 12 12 11 11 11 7 6 9 12 9 9 11 13 16 15 14 13 12 11 11 10 9 9 8 7 6 6 6 5
6 8 9 11 11 12 11 11 12 13 13 12 13 13 13 12 12 11 8 7 8 6 8 10 9 10 13 15 13 13 13 12 10 9 10 10 9 9 8 8 7 7 6 5
8 9 11 12 12 13 13 13 13 13 12 12 13 12 12 10 11 11 10 7 7 7 9 8 8 11 15 12 11 11 12 12 11 10 9 10 9 9 8 8 7 7 6 6
10 11 12 12 13 13 14 14 13 11 12 11 12 10 9 9 9 8 7 7 8 8 8 6 9 12 13 10 10 10 10 10 10 10 10 9 9 8 8 8 8 7 7 8
12 12 13 13 13 12 12 12 13 11 11 9 10 10 9 9 9 9 8 9 10 10 7 7 9 11 10 9 9 9 9 9 10 10 9 9 9 9 8 8 8 8 8 8
11 11 11 11 11 10 12 11 10 9 10 10 10 9 9 9 9 7 6 8 10 9 8 7 8 9 9 9 9 9 9 9 9 9 10 9 10 10 9 9 10 9 8 8
12 11 8 9 9 9 9 10 10 10 10 10 10 10 10 9 8 7 7 7 7 8 7 7 8 8 8 8 9 9 9 9 9 9 9 9 9 9 9 10 9 8 8 8
Wind_Direction
295 277 258 260 262 261 261 270 279 282 280 291 238 132 121 146 172 187 176 177 178 170 166 173 179 179 186 194 192 195 194 203 206 207 216 225 235 243 251 256 265 267 270 272
291 290 289 286 281 272 273 273 276 286 308 49 80 99 107 163 207 200 198 198 187 182 177 181 188 191 193 196 193 187 197 209 211 210 218 229 238 242 246 248 254 259 264 270
285 295 296 287 294 284 289 285 276 282 300 104 166 95 18 305 270 231 213 209 195 186 185 186 191 194 198 195 193 191 196 207 210 207 216 224 240 248 254 263 267 265 265 267
278 282 279 284 307 279 260 283 296 313 7 25 19 51 264 260 277 273 254 235 203 189 186 188 193 196 196 196 195 198 200 204 208 209 217 218 225 239 249 255 261 266 268 270
272 276 276 293 336 344 340 356 7 27 36 21 11 350 26 43 332 289 268 255 218 210 208 194 195 194 190 198 196 201 205 205 206 207 211 215 223 231 239 248 256 260 263 260
262 271 278 298 339 322 293 12 13 22 19 5 358 340 34 27 4 324 310 271 225 228 227 201 194 189 188 198 201 205 207 202 200 198 203 211 219 225 234 242 251 258 259 257
257 268 274 39 30 270 229 39 355 3 356 352 8 350 348 357 6 3 359 352 325 269 249 231 192 186 196 202 208 207 204 200 196 193 196 208 216 219 226 239 250 255 259 260
254 270 255 41 30 44 60 18 355 355 355 0 358 1 11 17 19 18 13 8 0 346 332 309 227 188 206 217 216 207 206 205 199 196 209 218 213 218 223 235 249 255 255 257
279 271 126 124 117 115 66 51 25 19 15 17 23 27 31 33 30 27 23 17 11 9 10 5 359 334 254 244 233 228 223 218 210 208 210 219 222 226 228 232 244 254 257 259
45 99 101 107 115 103 81 66 52 45 40 39 39 39 42 40 34 30 26 21 16 15 12 8 2 352 330 303 263 238 236 234 229 227 230 228 228 235 239 242 245 248 253 261
189 127 118 97 93 95 83 71 61 54 49 45 44 41 42 42 34 28 26 21 17 12 6 2 359 352 342 334 312 272 255 248 248 246 245 241 234 234 237 242 245 249 257 264
118 135 133 131 117 96 87 78 69 60 52 46 42 37 36 34 29 23 21 17 12 5 358 354 350 344 341 335 321 304 284 272 267 262 254 247 242 242 231 231 237 229 227 235
80 89 109 110 96 87 87 83 77 66 54 44 36 28 26 20 16 11 10 8 3 356 348 347 347 346 350 349 339 322 303 292 283 278 275 267 257 253 256 241 234 233 231 232
91 95 101 90 82 71 65 63 62 57 43 33 25 17 10 4 0 358 359 356 353 347 342 345 344 348 351 347 339 328 314 299 288 279 275 273 269 264 263 263 258 243 231 230
99 105 103 91 78 67 54 46 40 34 22 12 8 1 353 350 347 346 350 349 347 342 344 343 338 349 353 345 333 321 310 300 294 289 284 279 274 270 266 263 260 256 258 234
105 101 99 91 74 57 46 36 22 10 2 355 350 345 341 340 340 341 345 345 343 340 337 334 339 352 347 337 327 315 305 299 299 297 289 281 274 270 266 260 260 261 260 266
120 110 95 81 65 44 26 14 4 356 350 347 344 342 341 339 337 340 341 340 336 329 329 332 345 348 336 327 322 318 316 315 311 305 297 293 290 283 276 270 269 268 270 273
86 82 76 61 34 13 1 354 348 345 340 337 337 337 337 335 333 333 332 330 323 321 327 338 349 338 325 325 331 325 319 314 313 312 312 311 308 303 297 288 285 287 291 280
101 94 78 41 355 341 344 339 335 333 332 331 331 330 329 327 326 326 325 321 317 317 332 340 335 326 320 340 342 324 318 314 314 316 317 316 311 304 302 303 301 296 296 293
97 38 338 328 330 336 333 331 329 326 325 323 321 320 319 319 320 319 317 311 314 325 330 328 324 322 329 347 339 323 318 318 320 321 320 317 315 313 317 321 315 309 303 300
317 318 319 324 330 329 326 325 322 318 316 315 314 313 313 315 314 311 306 309 322 337 325 317 320 339 343 336 322 322 323 326 327 327 325 321 320 320 322 318 314 313 315 319
327 326 325 324 322 318 318 316 312 309 310 311 312 313 313 310 307 305 305 308 318 346 330 331 344 356 343 327 326 329 331 330 331 331 330 328 328 325 321 321 324 325 330 330
321 321 316 313 312 311 310 308 305 307 309 309 307 304 302 304 304 305 310 327 340 350 340 356 2 353 334 330 337 340 339 339 338 336 333 330 330 330 331 333 334 333 333 333
311 308 307 307 306 304 300 301 303 302 297 296 296 300 305 307 313 324 334 358 14 359 358 35 20 356 337 346 349 348 344 342 340 336 332 330 331 334 338 339 340 342 341 340
299 299 297 297 297 298 304 305 303 300 302 309 314 322 324 328 332 338 343 358 12 1 2 33 31 4 357 357 354 352 349 348 344 338 339 343 343 344 345 343 345 345 342 339
291 290 293 295 296 295 296 300 306 314 317 318 322 327 330 331 333 342 1 10 14 20 15 14 10 6 5 4 3 358 352 348 347 347 344 344 345 346 344 343 342 341 337 333
297 296 292 293 301 307 314 318 320 320 322 322 324 326 328 331 341 359 11 17 24 23 20 16 15 14 13 10 5 360 356 353 352 351 350 348 347 345 343 341 338 334 332 329
Height
1476 1473 1474 1472 1468 1466 1469 1470 1477 1475 1473 1469 1468 1469 1473 1475 1478 1482 1485 1488 1492 1495 1498 1501 1503 1505 1507 1508 1509 1510 1510 1510 1510 1510 1509 1509 1508 1508 1507 1506 1505 1504 1502 1501
1477 1468 1465 1465 1461 1460 1462 1463 1465 1466 1468 1464 1466 1469 1472 1474 1477 1479 1482 1485 1488 1491 1494 1497 1499 1501 1502 1503 1504 1505 1505 1506 1506 1506 1506 1505 1505 1504 1503 1501 1500 1499 1497 1496
1481 1470 1469 1474 1463 1461 1463 1460 1462 1469 1467 1463 1465 1468 1471 1473 1475 1476 1479 1481 1483 1486 1489 1491 1494 1496 1497 1498 1499 1500 1500 1501 1501 1501 1501 1501 1500 1500 1499 1497 1496 1494 1492 1490
1478 1478 1490 1471 1456 1457 1461 1459 1457 1459 1460 1462 1465 1467 1469 1471 1473 1475 1476 1478 1479 1481 1484 1486 1488 1490 1492 1493 1494 1494 1495 1495 1496 1496 1496 1496 1496 1495 1494 1492 1491 1489 1487 1485
1477 1480 1476 1466 1462 1464 1467 1467 1462 1461 1462 1463 1465 1467 1468 1470 1472 1474 1475 1476 1477 1478 1480 1481 1482 1484 1486 1487 1488 1489 1489 1490 1490 1491 1491 1491 1490 1489 1488 1487 1485 1483 1481 1479
1473 1480 1484 1473 1467 1466 1470 1477 1471 1468 1468 1468 1467 1470 1471 1472 1472 1473 1473 1473 1474 1475 1476 1477 1477 1479 1480 1480 1482 1482 1483 1484 1484 1485 1485 1485 1484 1483 1482 1481 1479 1477 1475 1473
1471 1473 1469 1469 1467 1467 1483 1488 1477 1474 1473 1472 1471 1473 1473 1472 1471 1471 1471 1471 1472 1472 1472 1473 1473 1474 1475 1475 1476 1477 1479 1479 1479 1478 1478 1478 1478 1477 1476 1475 1473 1471 1469 1467
1467 1476 1479 1471 1470 1477 1483 1480 1478 1476 1475 1474 1473 1473 1472 1472 1471 1470 1470 1469 1469 1469 1469 1470 1470 1470 1470 1471 1472 1473 1474 1474 1473 1473 1472 1472 1472 1471 1470 1469 1467 1465 1463 1461
1461 1467 1468 1468 1471 1477 1478 1479 1479 1478 1477 1475 1474 1474 1474 1474 1473 1472 1471 1470 1469 1468 1468 1468 1468 1468 1468 1468 1469 1469 1469 1468 1467 1466 1465 1465 1464 1463 1462 1462 1460 1459 1458 1456
1463 1467 1470 1473 1475 1476 1478 1479 1479 1478 1478 1477 1477 1477 1477 1476 1475 1474 1473 1472 1471 1469 1468 1468 1467 1467 1466 1466 1465 1464 1464 1463 1462 1461 1459 1458 1457 1457 1456 1455 1454 1453 1452 1450
1461 1466 1472 1476 1477 1477 1477 1477 1478 1479 1479 1480 1480 1480 1479 1479 1478 1477 1476 1474 1473 1471 1470 1468 1466 1465 1464 1462 1461 1460 1458 1457 1457 1455 1453 1452 1450 1449 1448 1448 1447 1446 1445 1444
1461 1464 1468 1475 1476 1476 1477 1478 1480 1481 1482 1482 1482 1482 1481 1481 1480 1479 1477 1476 1474 1472 1471 1469 1466 1464 1462 1460 1458 1456 1454 1453 1451 1450 1447 1445 1443 1441 1439 1439 1438 1437 1437 1436
1461 1462 1466 1471 1474 1476 1477 1479 1481 1482 1484 1484 1484 1484 1483 1482 1481 1479 1478 1476 1474 1472 1470 1468 1465 1462 1460 1457 1454 1452 1450 1447 1445 1443 1441 1439 1436 1434 1432 1431 1430 1429 1428 1427
1465 1467 1469 1472 1475 1477 1479 1481 1482 1483 1485 1485 1485 1484 1483 1482 1480 1479 1477 1475 1473 1471 1468 1466 1463 1460 1457 1454 1451 1448 1445 1442 1439 1436 1434 1431 1429 1427 1425 1423 1422 1420 1419 1418
1468 1470 1473 1476 1478 1480 1482 1483 1484 1485 1485 1485 1484 1483 1482 1480 1479 1477 1475 1473 1471 1469 1466 1463 1460 1457 1453 1450 1447 1443 1440 1436 1433 1430 1427 1424 1421 1419 1417 1415 1414 1412 1412 1411
1471 1473 1476 1479 1482 1483 1484 1485 1485 1485 1485 1484 1483 1482 1480 1479 1477 1475 1473 1471 1469 1466 1463 1460 1457 1453 1449 1446 1442 1438 1435 1431 1427 1423 1420 1417 1414 1411 1409 1407 1406 1405 1404 1404
1474 1477 1480 1482 1484 1485 1486 1486 1486 1485 1484 1483 1482 1480 1478 1476 1474 1472 1470 1468 1466 1463 1461 1457 1453 1449 1446 1442 1438 1434 1430 1426 1422 1418 1414 1410 1407 1404 1402 1400 1399 1398 1398 1397
1478 1481 1483 1485 1486 1486 1486 1486 1485 1484 1483 1481 1480 1478 1476 1474 1472 1470 1468 1465 1463 1460 1457 1454 1450 1446 1442 1439 1434 1430 1426 1421 1417 1413 1408 1404 1401 1398 1395 1394 1393 1392 1391 1391
1482 1484 1485 1486 1486 1486 1485 1485 1484 1482 1481 1479 1477 1475 1473 1471 1469 1467 1464 1462 1459 1455 1452 1450 1446 1442 1438 1434 1429 1425 1421 1417 1412 1407 1403 1398 1395 1392 1390 1388 1387 1386 1386 1385
1483 1484 1485 1485 1485 1484 1484 1483 1481 1480 1478 1476 1474 1472 1470 1468 1466 1463 1460 1458 1455 1451 1448 1445 1441 1438 1434 1429 1425 1421 1417 1412 1407 1402 1398 1394 1391 1388 1385 1384 1382 1381 1381 1380
1483 1484 1484 1483 1483 1482 1481 1480 1478 1477 1475 1473 1471 1468 1466 1464 1462 1459 1455 1453 1450 1447 1444 1440 1437 1433 1429 1425 1421 1417 1412 1408 1403 1398 1394 1390 1387 1384 1381 1380 1378 1377 1377 1376
1483 1483 1482 1482 1481 1480 1478 1477 1475 1473 1471 1469 1467 1464 1462 1459 1457 1454 1451 1448 1445 1442 1439 1436 1432 1428 1424 1420 1416 1412 1408 1403 1399 1395 1391 1387 1384 1381 1379 1377 1375 1374 1373 1373
1482 1481 1480 1479 1478 1476 1474 1472 1470 1468 1466 1464 1462 1460 1457 1455 1452 1449 1446 1444 1441 1438 1435 1431 1427 1423 1419 1416 1412 1407 1403 1399 1395 1391 1388 1385 1381 1379 1376 1374 1373 1371 1371 1370
1479 1478 1477 1476 1474 1472 1470 1467 1465 1464 1461 1459 1457 1455 1453 1450 1448 1445 1443 1440 1437 1434 1430 1426 1422 1419 1415 1412 1407 1403 1399 1396 1392 1388 1385 1382 1379 1376 1374 1372 1371 1370 1369 1367
1476 1475 1473 1471 1469 1467 1465 1463 1461 1459 1457 1455 1453 1451 1449 1447 1445 1442 1440 1436 1433 1430 1427 1423 1418 1415 1412 1408 1404 1400 1397 1393 1390 1386 1383 1380 1377 1375 1372 1371 1369 1368 1366 1365
1472 1470 1468 1467 1465 1463 1461 1459 1457 1455 1453 1451 1449 1448 1446 1443 1441 1439 1436 1433 1430 1426 1423 1420 1416 1413 1409 1406 1402 1399 1395 1392 1388 1385 1382 1379 1376 1373 1371 1369 1367 1365 1364 1362
1467 1465 1463 1462 1460 1458 1457 1455 1453 1452 1450 1448 1446 1444 1442 1440 1438 1435 1432 1430 1427 1424 1421 1418 1415 1412 1408 1405 1402 1398 1395 1391 1388 1385 1381 1378 1375 1372 1370 1367 1365 1363 1361 1360